Dewpoint
57 59 60 61 61 61 61 61 62 61 60 59 59 58 58 58 59 59 60 59 59 59
57 58 60 61 61 61 61 61 61 61 60 60 59 58 58 58 59 60 60 60 60 59
56 57 60 61 61 60 60 60 60 60 60 59 59 59 58 59 60 60 60 60 59 58
57 57 58 60 60 60 60 60 60 60 59 59 59 59 59 59 60 59 59 58 59 57
58 58 58 59 60 60 60 60 60 59 59 59 59 59 59 59 59 59 59 59 58 56
57 58 59 59 60 60 60 60 60 60 59 60 60 60 60 59 59 59 59 59 58 56
57 57 57 58 59 60 60 60 60 60 60 60 60 60 60 60 60 59 59 58 58 56
56 57 57 57 57 59 60 60 60 59 60 60 60 60 60 60 60 59 57 56 55 54
54 55 55 55 55 55 57 58 58 58 59 58 58 54 54 57 57 56 55 54 52 51
52 52 52 53 53 53 53 54 54 55 56 55 55 53 54 53 56 54 53 52 49 47
49 49 50 51 50 50 51 51 50 50 51 51 50 51 52 52 53 51 50 48 48 47
46 46 47 46 47 47 49 48 48 48 48 48 47 48 48 49 48 47 47 47 46 46
44 44 44 44 44 45 46 45 46 46 46 47 47 48 48 48 47 45 45 44 44 45
41 41 41 41 41 42 42 43 44 44 44 44 44 44 46 47 47 46 44 42 42 43
Lifted_Index
4 3 3 2 2 1 0 -0 -0 -1 -0 0 1 1 2 2 2 2 2 3 3 2
4 3 2 2 2 1 1 0 -0 -0 -0 -0 0 1 1 2 2 2 2 2 2 2
3 3 3 2 2 1 1 1 0 0 -0 -0 -0 0 1 1 1 2 2 2 1 1
3 3 3 3 2 2 1 1 1 1 0 0 0 0 1 1 1 1 1 1 0 0
2 2 3 3 2 2 2 2 2 2 1 1 1 0 0 0 1 1 1 0 -0 -0
2 2 2 3 2 2 2 2 2 2 2 2 1 1 1 1 1 1 1 1 1 0
2 2 3 3 2 2 2 2 2 2 2 2 2 1 1 1 1 1 1 1 1 1
3 3 3 3 3 2 2 2 2 2 2 2 2 2 2 2 2 2 2 1 1 1
3 3 3 3 3 2 2 2 2 2 2 2 2 2 2 2 2 2 2 1 1 1
3 3 3 3 3 3 2 2 2 2 2 2 2 2 2 2 1 1 1 1 1 1
3 3 3 3 3 3 3 3 3 2 2 2 2 1 1 1 1 1 1 1 1 1
5 5 4 4 4 4 4 4 4 3 3 2 2 2 1 1 2 2 2 2 1 1
6 5 5 5 5 5 5 4 4 4 3 3 3 3 2 2 2 3 3 2 2 2
6 6 6 6 6 5 5 5 4 4 4 4 3 3 3 3 3 3 3 3 2 2